Location: Auttagershofen
(48.1940°N, 10.0237°E)
Time: 02:19:31
(UTC+00:00)

Cosmos 44 - Pass Details

Date: 18 January 2026
Orbit: 571 x 779 km, 65.1° (Epoch: 6 February)

Event Time Altitude Azimuth Distance (km) Brightness Sun altitude
Exits shadow 04:08:33 55° 24° (NNE) 931 3.9 -28.6°
Maximum altitude 04:09:03 57° 47° (NE) 910 4.0 -28.6°
Drops below altitude 10° 04:14:21 10° 126° (SE) 2,328 6.6 -27.7°
Sets 04:16:48 0° 130° (SE) 3,248 7.5 -27.3°
